Weather Roundup
Issued by NWS Springfield, MO

Home | Current Version | Previous Version | Text Only | Print | Product List | Glossary On
Versions: 1 2 3 4 5 6 7 8 9 10 11 12 13 14 15 16 17 18 19 20 21 22 23 24 25 26 27 28 29 30 31 32 33 34 35 36 37 38 39 40 41 42 43 44 45 46 47 48 49 50
000
NZUS99 KSGF 300207
HRRSGF

HOURLY WEATHER
NATIONAL WEATHER SERVICE SPRINGFIELD MO
900 PM CDT FRI APR 29 2016

......SGF CWA......

CITY           SKY/WX    TMP DP  RH WIND       PRES   REMARKS
SPRINGFIELD    LGT RAIN  60  57  89 NE9       29.82R
JOPLIN         HVY RAIN  59  58  96 E15G22    29.76F FOG
WEST PLAINS    CLOUDY    60  57  89 E8        29.86S FOG
ROLLA          TSTM      56  55  97 NE10      29.91R FOG
OSAGE BEACH    CLOUDY    55  48  76 NE13      29.88R THUNDER
BRANSON        FOG       59  59 100 E13       29.81R VSB 1/8

......SURROUNDING SGF CWA......

CITY           SKY/WX    TMP DP  RH WIND       PRES   REMARKS
CHANUTE        CLOUDY    58  53  84 E21G26    29.71R
PARSONS        CLOUDY    59  57  93 N9        29.69R
COFFEYVILLE    CLOUDY    60  58  92 N16G22    29.64F
EMPORIA        CLOUDY    53  51  93 NE16      29.75R
GROVE OK       TSTM      61  61 100 NE5       29.73S
ROGERS AR      RAIN      62  61  96 E7        29.76R
SILOAM SPRINGS CLOUDY    64  55  72 SE13G21   29.72S
HARRISON AR    LGT RAIN  60  60 100 SE6       29.80R FOG
NEAR YELLVILLE CLOUDY   N/A N/A N/A E7        29.78R

......KANSAS AND MISSOURI......

CITY           SKY/WX    TMP DP  RH WIND       PRES   REMARKS
KANSAS CTY INT CLOUDY    51  48  89 E18       29.82R
DOWNTOWN KC    CLOUDY    54  50  86 E12G24    29.81R
COLUMBIA       LGT RAIN  59  54  83 E7        29.92F
SEDALIA        LGT RAIN  58  54  86 E6        29.91R
ST JOSEPH      CLOUDY    51  47  86 E14G25    29.85F
ST LOUIS       CLOUDY    63  52  67 E12       29.96F
SPIRIT OF STL  CLOUDY    62  54  74 E8        29.95R
KIRKSVILLE     CLOUDY    49  46  90 E21G28    29.91F
WICHITA        CLOUDY    56  52  86 E13G24    29.70R
TOPEKA         CLOUDY    53  49  86 E20G28    29.80R
OLATHE         CLOUDY    52  51  97 E17G28    29.78F

......TENNESSEE......

CITY           SKY/WX    TMP DP  RH WIND       PRES   REMARKS
MEMPHIS        CLOUDY    65  61  87 SE8       29.87R
NASHVILLE      CLOUDY    68  60  75 SE5       29.98R

......ARKANSAS.......

CITY           SKY/WX    TMP DP  RH WIND       PRES   REMARKS
FAYETTEVILLE   RAIN      65  64  97 SE10      29.73R
FT SMITH       RAIN      66  63  90 E14       29.67F FOG
LITTLE ROCK    RAIN      68  65  90 NE3       29.80R FOG

......OKLAHOMA.......

CITY           SKY/WX    TMP DP  RH WIND       PRES   REMARKS
TULSA          LGT RAIN  67  64  90 SW10      29.59R
PONCA CITY     CLOUDY    60  57  89 E12       29.63S
MCALESTER      TSTM      66  63  90 SE8       29.63R
OKLAHOMA CITY  CLOUDY    59  58  96 NW15      29.63R FOG

......IOWA............

CITY           SKY/WX    TMP DP  RH WIND       PRES   REMARKS
DES MOINES     CLOUDY    49  40  71 E12       29.99F
QUAD CITIES    CLOUDY    50  41  71 E13       30.08S

......ILLINOIS........

CITY           SKY/WX    TMP DP  RH WIND       PRES   REMARKS
QUINCY         CLOUDY    53  47  79 NE12      30.00F
CHICAGO        CLOUDY    43  38  82 NE8       30.13F




USA.gov is the U.S. government's official web portal to all federal, state and local government web resources and services.